Ontario, OR

6:47 PM MDT on October 19, 2017 (GMT -0600)
Ontario Municipal

Weather History for KONO - October, 2012

Change the Weather History Date:

Wednesday, October 3, 2012

  Actual Average Record
Temperature  
Mean Temperature 57 °F 56 °F  
Max Temperature 68 °F 74 °F 93 °F (1963)
Min Temperature 45 °F 38 °F 26 °F (1978)
Degree Days  
Heating Degree Days 8 9  
Month to date heating degree days 10 26  
Since 1 July heating degree days 51 160  
Cooling Degree Days 0 0  
Month to date cooling degree days 1 0  
Year to date cooling degree days 1091 851  
Growing Degree Days 6 (Base 50)    
Moisture  
Dew Point 14 °F    
Average Humidity 19    
Maximum Humidity 29    
Minimum Humidity 9    
Precipitation  
Precipitation 0.00 in 0.02 in 0.30 in (1967)
Month to date precipitation 0.00 0.05  
Year to date precipitation 5.83 6.70  
Sea Level Pressure  
Sea Level Pressure 30.17 in    
Wind  
Wind Speed 12 mph (NW)    
Max Wind Speed 40 mph    
Max Gust Speed 48 mph    
Visibility 9 miles    
Events      
T = Trace of Precipitation, MM = Missing Value Source: NWS Daily Summary

Daily Weather History Graph

Daily Weather History Graph

Search for Another Location

Airport or City:

Trip Planner

Search our weather history database for the weather conditions in past years. The results will help you decide how hot, cold, wet, or windy it might be!

Date:

Astronomy

Oct. 03, 2012 Rise Set
Actual Time 7:48 AM MDT 7:24 PM MDT
Civil Twilight 7:19 AM MDT 7:52 PM MDT
Nautical Twilight 6:46 AM MDT 8:26 PM MDT
Astronomical Twilight 6:12 AM MDT 9:00 PM MDT
Moon 9:10 PM MDT (10/3) 11:24 AM MDT (10/3)
Length of Visible Light 12h 33m
Length of Day
11h 35m
Waning Gibbous, 88% of the Moon is Illuminated
Oct 3
Waning Gibbous
Oct 8
Last Quarter
Oct 15
New
Oct 21
First Quarter
Oct 29
Full

Hourly Weather History & Observations

Time (MDT) Temp. Windchill Dew Point Humidity Pressure Visibility Wind Dir Wind Speed Gust Speed Precip Events Conditions
12:53 AM 61.0 °F - 23.0 °F 23% 29.97 in 6.0 mi NNW 28.8 mph 40.3 mph N/A   Haze
1:00 AM 60.8 °F - 23.0 °F 23% 30.00 in 4.0 mi NW 25.3 mph 42.6 mph N/A   Haze
1:53 AM 57.9 °F - 21.9 °F 25% 30.00 in 5.0 mi NW 33.4 mph 41.4 mph N/A   Haze
2:53 AM 55.0 °F - 19.0 °F 24% 30.06 in 10.0 mi WNW 24.2 mph 33.4 mph N/A   Overcast
3:17 AM 53.6 °F - 19.4 °F 26% 30.11 in 10.0 mi Calm Calm - N/A   Overcast
4:00 AM 53.6 °F - 17.6 °F 24% 30.12 in 10.0 mi WNW 21.9 mph - N/A   Overcast
4:32 AM 51.8 °F - 15.8 °F 24% 30.16 in 10.0 mi WNW 16.1 mph - N/A   Overcast
4:53 AM 53.1 °F - 14.0 °F 21% 30.14 in 10.0 mi WNW 20.7 mph 25.3 mph N/A   Overcast
5:53 AM 48.9 °F - 10.0 °F 21% 30.16 in 10.0 mi WNW 13.8 mph 23.0 mph N/A   Clear
6:53 AM 46.9 °F - 10.0 °F 22% 30.19 in 10.0 mi NW 17.3 mph 27.6 mph N/A   Clear
7:53 AM 45.0 °F 37.9 °F 10.9 °F 25% 30.23 in 10.0 mi NW 16.1 mph - N/A   Clear
8:53 AM 46.9 °F - 12.9 °F 25% 30.26 in 10.0 mi West 6.9 mph - N/A   Clear
9:53 AM 51.1 °F - 12.9 °F 22% 30.27 in 10.0 mi NW 15.0 mph - N/A   Clear
10:53 AM 55.0 °F - 12.9 °F 19% 30.27 in 10.0 mi NW 17.3 mph 24.2 mph N/A   Clear
11:53 AM 57.9 °F - 8.1 °F 14% 30.27 in 10.0 mi WNW 10.4 mph 18.4 mph N/A   Clear
12:53 PM 62.1 °F - 10.9 °F 13% 30.25 in 10.0 mi NW 12.7 mph - N/A   Clear
1:53 PM 64.0 °F - 10.9 °F 13% 30.23 in 10.0 mi NNW 12.7 mph 20.7 mph N/A   Clear
2:53 PM 66.9 °F - 10.9 °F 11% 30.21 in 10.0 mi North 11.5 mph 16.1 mph N/A   Clear
3:53 PM 66.9 °F - 10.0 °F 11% 30.19 in 10.0 mi WNW 6.9 mph - N/A   Clear
4:53 PM 68.0 °F - 8.1 °F 10% 30.18 in 10.0 mi NW 4.6 mph - N/A   Clear
5:53 PM 68.0 °F - 8.1 °F 10% 30.17 in 10.0 mi NNW 4.6 mph - N/A   Clear
6:53 PM 63.0 °F - 17.1 °F 17% 30.17 in 10.0 mi NW 5.8 mph - N/A   Clear
7:53 PM 55.0 °F - 16.0 °F 22% 30.19 in 10.0 mi WNW 4.6 mph - N/A   Clear
8:53 PM 53.1 °F - 16.0 °F 23% 30.18 in 10.0 mi NNE 3.5 mph - N/A   Clear
9:53 PM 52.0 °F - 16.0 °F 24% 30.19 in 10.0 mi North 6.9 mph - N/A   Clear
10:53 PM 48.9 °F - 18.0 °F 29% 30.21 in 10.0 mi WNW 6.9 mph - N/A   Clear
11:53 PM 48.0 °F - 17.1 °F 29% 30.22 in 10.0 mi NW 6.9 mph - N/A   Clear